Location: Cactus School
(34.5700°N, 118.0931°W)
Time: 02:40:31
(UTC-07:00)

Courier 1B - Pass Details

Date: 23 April 2024
Orbit: 962 x 1208 km, 28.3° (Epoch: 23 May)

Event Time Altitude Azimuth Distance (km) Brightness Sun altitude
Exits shadow 05:41:28 - 264° (W) 3,273 9.6 -6.5°
Reaches altitude 10° 05:42:33 10° 261° (W) 2,929 9.4 -6.3°
Maximum altitude 05:48:53 35° 198° (SSW) 1,612 8.4 -5.0°
Drops below altitude 10° 05:54:54 10° 135° (SE) 2,768 10.3 -3.9°
Sets 05:57:44 0° 126° (SE) 3,688 11.1 -3.3°
